This is the latest recevied weather packets stored in our database for station/object G4KVI. If no packets are shown the sender has not sent any weather packets the latest 10 day(s).
| Time | Temp. | Humidity | Pressure | Rain* | Wind** | Luminosity | Snow |
|---|---|---|---|---|---|---|---|
| 1788243605 | 12.78° C | 92% | 1022.8 hPa | 0.51 mm | - | 21 W/m² | - |
| 1788243305 | 12.78° C | 92% | 1022.9 hPa | 0.51 mm | - | 25 W/m² | - |
| 1788243005 | 12.78° C | 92% | 1022.9 hPa | 0.51 mm | - | 21 W/m² | - |
| 1788242705 | 12.78° C | 92% | 1023 hPa | 0.25 mm | - | 8 W/m² | - |
| 1788242405 | 12.78° C | 92% | 1022.9 hPa | 0.25 mm | - | 10 W/m² | - |
| 1788242105 | 12.78° C | 92% | 1022.7 hPa | 0.25 mm | - | 6 W/m² | - |
| 1788241805 | 12.78° C | 91% | 1022.6 hPa | 0.25 mm | - | 6 W/m² | - |
| 1788241505 | 12.78° C | 91% | 1022.5 hPa | 0.25 mm | - | 4 W/m² | - |
| 1788241205 | 12.78° C | 91% | 1022.4 hPa | 0 mm | - | 3 W/m² | - |
| 1788240905 | 12.22° C | 91% | 1022.7 hPa | 0 mm | - | 2 W/m² | - |
| 1788240605 | 12.22° C | 90% | 1022.5 hPa | 0 mm | - | 1 W/m² | - |
| 1788240305 | 11.67° C | 90% | 1022.6 hPa | 0 mm | - | 0 W/m² | - |
| 1788240005 | 11.67° C | 90% | 1022.5 hPa | 0 mm | - | 0 W/m² | - |
| 1788239705 | 11.67° C | 90% | 1022.3 hPa | 0 mm | - | 0 W/m² | - |
| 1788239405 | 11.67° C | 90% | 1022.4 hPa | 0 mm | - | 0 W/m² | - |
| 1788239105 | 11.67° C | 91% | 1022.1 hPa | 0 mm | - | 0 W/m² | - |
| 1788238805 | 11.67° C | 91% | 1022.3 hPa | 0 mm | - | 0 W/m² | - |
| 1788238505 | 11.67° C | 91% | 1022.3 hPa | 0 mm | - | 0 W/m² | - |
| 1788238205 | 11.67° C | 92% | 1022.3 hPa | 0 mm | - | 0 W/m² | - |
| 1788237905 | 11.67° C | 92% | 1022.2 hPa | 0 mm | - | 0 W/m² | - |
| 1788237605 | 11.11° C | 92% | 1022.2 hPa | 0 mm | - | 0 W/m² | - |
| 1788237305 | 11.11° C | 92% | 1022.1 hPa | 0 mm | - | 0 W/m² | - |
| 1788237005 | 11.11° C | 93% | 1022.3 hPa | 0 mm | - | 0 W/m² | - |
| 1788236706 | 11.11° C | 93% | 1022 hPa | 0 mm | - | 0 W/m² | - |
| 1788236405 | 10.56° C | 93% | 1022.2 hPa | 0 mm | - | 0 W/m² | - |
* Rain latest hour (hover to see other rain measurements)
** Current wind speed in m/s (hover to see current wind gust speed)